| time (UTC) | temp C | wind direction | speed KPH | gust KPH | rain 1hr cm | rain 24hr cm | rain mn cm | humidity % | barometer mb |
| 20260504021333 | 4 | 22 | 0.0 | 1.6 | 0.00 | 0.00 | 0.00 | 71 | 1012.4 |
| 20260504020833 | 4 | 0 | 0.0 | 3.2 | 0.00 | 0.00 | 0.00 | 71 | 1012.5 |
| 20260504020333 | 4 | 292 | 1.6 | 3.2 | 0.00 | 0.00 | 0.00 | 71 | 1012.5 |
| 20260504015833 | 5 | 292 | 0.0 | 3.2 | 0.00 | 0.00 | 0.00 | 70 | 1012.5 |
| 20260504015333 | 5 | 337 | 1.6 | 3.2 | 0.00 | 0.00 | 0.00 | 69 | 1012.6 |
| 20260504014833 | 5 | 0 | 0.0 | 3.2 | 0.00 | 0.00 | 0.00 | 69 | 1012.5 |
| 20260504014333 | 6 | 22 | 0.0 | 6.4 | 0.00 | 0.00 | 0.00 | 68 | 1012.4 |
| 20260504013833 | 6 | 315 | 1.6 | 6.4 | 0.00 | 0.00 | 0.00 | 68 | 1012.5 |
| 20260504013333 | 6 | 292 | 3.2 | 6.4 | 0.00 | 0.00 | 0.00 | 68 | 1012.6 |
| 20260504012833 | 6 | 225 | 6.4 | 12.9 | 0.00 | 0.00 | 0.00 | 68 | 1012.7 |
| 20260504012333 | 6 | 292 | 8.0 | 12.9 | 0.00 | 0.00 | 0.00 | 68 | 1012.7 |
| 20260504011833 | 6 | 292 | 8.0 | 8.0 | 0.00 | 0.00 | 0.00 | 68 | 1012.8 |
| 20260504011333 | 6 | 292 | 3.2 | 8.0 | 0.00 | 0.00 | 0.00 | 69 | 1012.8 |
| 20260504010833 | 6 | 270 | 4.8 | 11.3 | 0.00 | 0.00 | 0.00 | 69 | 1012.8 |
| 20260504010333 | 6 | 315 | 4.8 | 11.3 | 0.00 | 0.00 | 0.00 | 69 | 1012.9 |
| 20260504005833 | 6 | 292 | 3.2 | 9.7 | 0.00 | 0.00 | 0.00 | 69 | 1012.9 |
| 20260504005333 | 6 | 270 | 3.2 | 9.7 | 0.00 | 0.00 | 0.00 | 69 | 1012.9 |
| 20260504004833 | 6 | 315 | 8.0 | 14.5 | 0.00 | 0.00 | 0.00 | 69 | 1013.0 |
| 20260504004333 | 6 | 270 | 4.8 | 12.9 | 0.00 | 0.00 | 0.00 | 69 | 1013.0 |
| 20260504003833 | 6 | 292 | 3.2 | 9.7 | 0.00 | 0.00 | 0.00 | 69 | 1013.1 |
| 20260504003333 | 6 | 292 | 6.4 | 12.9 | 0.00 | 0.00 | 0.00 | 69 | 1013.0 |
| 20260504002833 | 6 | 270 | 9.7 | 9.7 | 0.00 | 0.00 | 0.00 | 69 | 1013.1 |
| 20260504002333 | 6 | 337 | 4.8 | 9.7 | 0.00 | 0.00 | 0.00 | 68 | 1013.1 |
| 20260504001833 | 6 | 292 | 3.2 | 8.0 | 0.00 | 0.00 | 0.00 | 68 | 1013.2 |
| 20260504001333 | 6 | 315 | 6.4 | 16.1 | 0.00 | 0.00 | 0.00 | 68 | 1013.2 |
| 20260504000833 | 6 | 292 | 9.7 | 11.3 | 0.00 | 0.00 | 0.00 | 68 | 1013.2 |
| 20260504000333 | 6 | 270 | 11.3 | 11.3 | 0.00 | 0.00 | 0.00 | 67 | 1013.2 |
| 20260503235833 | 6 | 292 | 6.4 | 16.1 | 0.00 | 0.00 | 0.00 | 67 | 1013.3 |
| 20260503235333 | 6 | 202 | 3.2 | 14.5 | 0.00 | 0.00 | 0.00 | 67 | 1013.4 |
| 20260503234833 | 6 | 315 | 11.3 | 11.3 | 0.00 | 0.00 | 0.00 | 67 | 1013.5 |
| 20260503234333 | 6 | 337 | 3.2 | 11.3 | 0.00 | 0.00 | 0.00 | 67 | 1013.5 |
| 20260503233833 | 6 | 315 | 4.8 | 11.3 | 0.00 | 0.00 | 0.00 | 67 | 1013.5 |
| 20260503233333 | 6 | 292 | 3.2 | 9.7 | 0.00 | 0.00 | 0.00 | 67 | 1013.7 |
| 20260503232833 | 6 | 270 | 8.0 | 14.5 | 0.00 | 0.00 | 0.00 | 67 | 1013.8 |
| 20260503232333 | 6 | 337 | 6.4 | 11.3 | 0.00 | 0.00 | 0.00 | 67 | 1013.7 |
| 20260503231833 | 6 | 270 | 3.2 | 11.3 | 0.00 | 0.00 | 0.00 | 68 | 1013.8 |
| 20260503231333 | 6 | 270 | 1.6 | 9.7 | 0.00 | 0.00 | 0.00 | 68 | 1013.9 |
| 20260503230833 | 6 | 292 | 6.4 | 9.7 | 0.00 | 0.00 | 0.00 | 69 | 1013.8 |
| 20260503230333 | 6 | 0 | 3.2 | 9.7 | 0.00 | 0.00 | 0.00 | 69 | 1014.0 |
| 20260503225833 | 5 | 315 | 1.6 | 8.0 | 0.00 | 0.00 | 0.00 | 69 | 1014.0 |
| 20260503225333 | 5 | 337 | 1.6 | 3.2 | 0.00 | 0.00 | 0.00 | 69 | 1014.0 |
| 20260503224833 | 5 | 292 | 0.0 | 8.0 | 0.00 | 0.00 | 0.00 | 69 | 1014.2 |
| 20260503224333 | 5 | 247 | 1.6 | 4.8 | 0.00 | 0.00 | 0.00 | 70 | 1014.2 |
| 20260503223833 | 5 | 337 | 1.6 | 6.4 | 0.00 | 0.00 | 0.00 | 71 | 1014.1 |
| 20260503223333 | 5 | 292 | 1.6 | 4.8 | 0.00 | 0.00 | 0.00 | 71 | 1014.0 |
| 20260503222833 | 5 | 270 | 3.2 | 9.7 | 0.00 | 0.00 | 0.00 | 72 | 1014.0 |
| 20260503222333 | 5 | 292 | 1.6 | 6.4 | 0.00 | 0.00 | 0.00 | 71 | 1014.1 |
| 20260503221833 | 5 | 22 | 0.0 | 1.6 | 0.00 | 0.00 | 0.00 | 71 | 1014.1 |
| 20260503221333 | 5 | 337 | 0.0 | 1.6 | 0.00 | 0.00 | 0.00 | 70 | 1014.2 |
| 20260503220833 | 5 | 22 | 0.0 | 1.6 | 0.00 | 0.00 | 0.00 | 69 | 1014.2 |
| 20260503220333 | 5 | 337 | 1.6 | 3.2 | 0.00 | 0.00 | 0.00 | 69 | 1014.3 |
| 20260503215833 | 6 | 292 | 0.0 | 4.8 | 0.00 | 0.00 | 0.00 | 69 | 1014.2 |
| 20260503215333 | 6 | 247 | 3.2 | 4.8 | 0.00 | 0.00 | 0.00 | 69 | 1014.3 |
| 20260503214833 | 5 | 292 | 3.2 | 4.8 | 0.00 | 0.00 | 0.00 | 69 | 1014.3 |
| 20260503214333 | 5 | 270 | 1.6 | 6.4 | 0.00 | 0.00 | 0.00 | 70 | 1014.3 |
| 20260503213833 | 5 | 315 | 1.6 | 6.4 | 0.00 | 0.00 | 0.00 | 70 | 1014.3 |
| 20260503213333 | 6 | 292 | 0.0 | 3.2 | 0.00 | 0.00 | 0.00 | 70 | 1014.4 |
| 20260503212833 | 6 | 270 | 3.2 | 4.8 | 0.00 | 0.00 | 0.00 | 70 | 1014.5 |
| 20260503212333 | 6 | 270 | 3.2 | 4.8 | 0.00 | 0.00 | 0.00 | 70 | 1014.5 |
| 20260503211833 | 5 | 292 | 4.8 | 4.8 | 0.00 | 0.00 | 0.00 | 70 | 1014.5 |
| 20260503211333 | 5 | 315 | 3.2 | 4.8 | 0.00 | 0.00 | 0.00 | 70 | 1014.5 |
| 20260503210833 | 5 | 292 | 3.2 | 4.8 | 0.00 | 0.00 | 0.00 | 71 | 1014.5 |
| 20260503210333 | 5 | 315 | 4.8 | 9.7 | 0.00 | 0.00 | 0.00 | 71 | 1014.6 |
| 20260503205833 | 5 | 337 | 4.8 | 6.4 | 0.00 | 0.00 | 0.00 | 71 | 1014.7 |
| 20260503205333 | 5 | 270 | 1.6 | 6.4 | 0.00 | 0.00 | 0.00 | 72 | 1014.8 |
| 20260503204833 | 5 | 292 | 1.6 | 11.3 | 0.00 | 0.00 | 0.00 | 73 | 1014.8 |
| 20260503204333 | 5 | 292 | 1.6 | 6.4 | 0.00 | 0.00 | 0.00 | 73 | 1014.9 |
| 20260503203833 | 5 | 270 | 1.6 | 4.8 | 0.00 | 0.00 | 0.00 | 74 | 1014.8 |
| 20260503203333 | 5 | 270 | 0.0 | 6.4 | 0.00 | 0.00 | 0.00 | 75 | 1014.9 |
| 20260503202833 | 4 | 292 | 3.2 | 6.4 | 0.00 | 0.00 | 0.00 | 76 | 1015.0 |
| 20260503202333 | 3 | 315 | 1.6 | 3.2 | 0.00 | 0.00 | 0.00 | 76 | 1015.2 |
| 20260503201833 | 3 | 292 | 0.0 | 1.6 | 0.00 | 0.00 | 0.00 | 76 | 1015.2 |
| 20260503201333 | 2 | 292 | 0.0 | 3.2 | 0.00 | 0.00 | 0.00 | 76 | 1015.3 |
| 20260503200833 | 2 | 292 | 0.0 | 3.2 | 0.00 | 0.00 | 0.00 | 76 | 1015.4 |
| 20260503200333 | 2 | 337 | 0.0 | 0.0 | 0.00 | 0.00 | 0.00 | 74 | 1015.3 |
| 20260503195833 | 2 | 45 | 0.0 | 0.0 | 0.00 | 0.00 | 0.00 | 74 | 1015.4 |
| 20260503195333 | 2 | 22 | 0.0 | 0.0 | 0.00 | 0.00 | 0.00 | 74 | 1015.5 |
| 20260503194833 | 2 | 45 | 0.0 | 0.0 | 0.00 | 0.00 | 0.00 | 75 | 1015.5 |
| 20260503194333 | 2 | 0 | 0.0 | 1.6 | 0.00 | 0.00 | 0.00 | 74 | 1015.6 |
| 20260503193833 | 2 | 0 | 0.0 | 1.6 | 0.00 | 0.00 | 0.00 | 72 | 1015.6 |
| 20260503193333 | 3 | 22 | 0.0 | 1.6 | 0.00 | 0.00 | 0.00 | 72 | 1015.7 |
| 20260503192833 | 3 | 22 | 0.0 | 0.0 | 0.00 | 0.00 | 0.00 | 71 | 1015.8 |
| 20260503192333 | 3 | 292 | 0.0 | 0.0 | 0.00 | 0.00 | 0.00 | 70 | 1015.8 |
| 20260503191833 | 3 | 270 | 0.0 | 0.0 | 0.00 | 0.00 | 0.00 | 70 | 1015.9 |
| 20260503191333 | 4 | 247 | 0.0 | 1.6 | 0.00 | 0.00 | 0.00 | 69 | 1015.9 |
| 20260503190833 | 5 | 225 | 0.0 | 3.2 | 0.00 | 0.00 | 0.00 | 69 | 1015.9 |
| 20260503190333 | 5 | 315 | 0.0 | 1.6 | 0.00 | 0.00 | 0.00 | 69 | 1015.9 |
| 20260503185833 | 5 | 315 | 0.0 | 1.6 | 0.00 | 0.00 | 0.00 | 69 | 1015.8 |
| 20260503185333 | 5 | 315 | 0.0 | 1.6 | 0.00 | 0.00 | 0.00 | 70 | 1015.9 |
| 20260503184833 | 5 | 315 | 1.6 | 1.6 | 0.00 | 0.00 | 0.00 | 70 | 1015.9 |
| 20260503184333 | 5 | 315 | 0.0 | 0.0 | 0.00 | 0.00 | 0.00 | 69 | 1016.0 |
| 20260503183833 | 5 | 315 | 0.0 | 0.0 | 0.00 | 0.00 | 0.00 | 70 | 1016.0 |
| 20260503183333 | 5 | 315 | 0.0 | 0.0 | 0.00 | 0.00 | 0.00 | 70 | 1016.0 |
| 20260503182833 | 5 | 315 | 0.0 | 0.0 | 0.00 | 0.00 | 0.00 | 69 | 1016.1 |
| 20260503182334 | 5 | 315 | 0.0 | 0.0 | 0.00 | 0.00 | 0.00 | 69 | 1016.1 |
| 20260503181833 | 5 | 315 | 0.0 | 0.0 | 0.00 | 0.00 | 0.00 | 68 | 1016.1 |
| 20260503181333 | 5 | 315 | 0.0 | 0.0 | 0.00 | 0.00 | 0.00 | 67 | 1016.0 |
| 20260503180834 | 5 | 315 | 0.0 | 0.0 | 0.00 | 0.00 | 0.00 | 66 | 1016.0 |
| 20260503180333 | 6 | 315 | 0.0 | 0.0 | 0.00 | 0.00 | 0.00 | 65 | 1016.0 |
| 20260503175833 | 6 | 315 | 0.0 | 0.0 | 0.00 | 0.00 | 0.00 | 65 | 1016.0 |
| 20260503175334 | 6 | 337 | 0.0 | 0.0 | 0.00 | 0.00 | 0.00 | 66 | 1015.8 |
| 20260503174834 | 6 | 337 | 0.0 | 0.0 | 0.00 | 0.00 | 0.00 | 65 | 1015.7 |
| 20260503174334 | 6 | 337 | 0.0 | 0.0 | 0.00 | 0.00 | 0.00 | 64 | 1015.6 |
| 20260503173834 | 6 | 22 | 0.0 | 0.0 | 0.00 | 0.00 | 0.00 | 63 | 1015.7 |
| 20260503173333 | 7 | 45 | 0.0 | 0.0 | 0.00 | 0.00 | 0.00 | 62 | 1015.7 |
| 20260503172834 | 7 | 45 | 0.0 | 0.0 | 0.00 | 0.00 | 0.00 | 61 | 1015.7 |
| 20260503172333 | 7 | 45 | 0.0 | 0.0 | 0.00 | 0.00 | 0.00 | 59 | 1015.6 |
| 20260503171834 | 7 | 45 | 0.0 | 0.0 | 0.00 | 0.00 | 0.00 | 58 | 1015.8 |
| 20260503171334 | 8 | 112 | 0.0 | 0.0 | 0.00 | 0.00 | 0.00 | 57 | 1015.7 |
| 20260503170834 | 8 | 67 | 0.0 | 0.0 | 0.00 | 0.00 | 0.00 | 56 | 1015.7 |
| 20260503170334 | 9 | 45 | 0.0 | 0.0 | 0.00 | 0.00 | 0.00 | 55 | 1015.6 |
| 20260503150834 | 15 | 45 | 8.0 | 14.5 | 0.00 | 0.00 | 0.00 | 45 | 1016.0 |
| 20260503150334 | 15 | 22 | 9.7 | 12.9 | 0.00 | 0.00 | 0.00 | 45 | 1016.0 |
| 20260503131334 | 16 | 22 | 14.5 | 14.5 | 0.00 | 0.00 | 0.00 | 46 | 1017.1 |
| 20260503130834 | 16 | 45 | 8.0 | 16.1 | 0.00 | 0.00 | 0.00 | 42 | 1017.1 |
| 20260503130334 | 17 | 45 | 4.8 | 16.1 | 0.00 | 0.00 | 0.00 | 41 | 1017.1 |
| 20260503110334 | 16 | 22 | 9.7 | 14.5 | 0.00 | 0.00 | 0.00 | 41 | 1018.6 |
| 20260503090334 | 20 | 45 | 6.4 | 16.1 | 0.00 | 0.00 | 0.00 | 37 | 1019.3 |
| 20260503081334 | 16 | 90 | 3.2 | 14.5 | 0.00 | 0.00 | 0.00 | 48 | 1019.6 |
| 20260503080834 | 16 | 45 | 8.0 | 14.5 | 0.00 | 0.00 | 0.00 | 46 | 1019.6 |
| 20260503080334 | 18 | 45 | 9.7 | 16.1 | 0.00 | 0.00 | 0.00 | 43 | 1019.5 |
| 20260503072834 | 18 | 45 | 16.1 | 17.7 | 0.00 | 0.00 | 0.00 | 44 | 1019.5 |
| 20260503072334 | 17 | 22 | 11.3 | 14.5 | 0.00 | 0.00 | 0.00 | 44 | 1019.5 |
| 20260503071834 | 17 | 45 | 16.1 | 16.1 | 0.00 | 0.00 | 0.00 | 46 | 1019.4 |
| 20260503071334 | 17 | 22 | 8.0 | 14.5 | 0.00 | 0.00 | 0.00 | 48 | 1019.4 |
| 20260503070834 | 16 | 0 | 8.0 | 16.1 | 0.00 | 0.00 | 0.00 | 48 | 1019.4 |
| 20260503070334 | 16 | 22 | 8.0 | 14.5 | 0.00 | 0.00 | 0.00 | 48 | 1019.4 |
| 20260503060334 | 15 | 0 | 3.2 | 9.7 | 0.00 | 0.00 | 0.00 | 58 | 1019.4 |
| 20260503054835 | 13 | 22 | 8.0 | 12.9 | 0.00 | 0.00 | 0.00 | 60 | 1019.4 |
| 20260503054334 | 12 | 0 | 6.4 | 17.7 | 0.00 | 0.00 | 0.00 | 61 | 1019.4 |
| 20260503053835 | 12 | 337 | 6.4 | 14.5 | 0.00 | 0.00 | 0.00 | 62 | 1019.5 |
| 20260503053335 | 11 | 0 | 4.8 | 14.5 | 0.00 | 0.00 | 0.00 | 63 | 1019.7 |
| 20260503052834 | 11 | 0 | 8.0 | 11.3 | 0.00 | 0.00 | 0.00 | 63 | 1019.5 |
| 20260503052335 | 11 | 22 | 6.4 | 16.1 | 0.00 | 0.00 | 0.00 | 63 | 1019.1 |
| 20260503051835 | 10 | 22 | 4.8 | 9.7 | 0.00 | 0.00 | 0.00 | 63 | 1019.1 |
| 20260503051335 | 10 | 337 | 4.8 | 16.1 | 0.00 | 0.00 | 0.00 | 63 | 1019.2 |
| 20260503050835 | 11 | 22 | 4.8 | 12.9 | 0.00 | 0.00 | 0.00 | 62 | 1019.2 |
| 20260503050335 | 11 | 0 | 8.0 | 11.3 | 0.00 | 0.00 | 0.00 | 62 | 1019.3 |
| 20260503045835 | 11 | 0 | 3.2 | 12.9 | 0.00 | 0.00 | 0.00 | 62 | 1019.3 |
| 20260503045335 | 11 | 22 | 6.4 | 14.5 | 0.00 | 0.00 | 0.00 | 62 | 1019.3 |
| 20260503044835 | 10 | 0 | 8.0 | 9.7 | 0.00 | 0.00 | 0.00 | 62 | 1019.2 |
| 20260503044335 | 10 | 45 | 4.8 | 14.5 | 0.00 | 0.00 | 0.00 | 62 | 1019.1 |
| 20260503043835 | 10 | 337 | 11.3 | 12.9 | 0.00 | 0.00 | 0.00 | 62 | 1019.2 |
| 20260503043335 | 10 | 22 | 4.8 | 9.7 | 0.00 | 0.00 | 0.00 | 63 | 1019.2 |
| 20260503042835 | 10 | 0 | 4.8 | 9.7 | 0.00 | 0.00 | 0.00 | 63 | 1019.2 |
| 20260503042335 | 9 | 22 | 1.6 | 9.7 | 0.00 | 0.00 | 0.00 | 65 | 1019.2 |
| 20260503041835 | 8 | 337 | 8.0 | 9.7 | 0.00 | 0.00 | 0.00 | 65 | 1019.1 |
| 20260503041335 | 8 | 337 | 4.8 | 6.4 | 0.00 | 0.00 | 0.00 | 66 | 1019.1 |
| 20260503040835 | 8 | 22 | 3.2 | 9.7 | 0.00 | 0.00 | 0.00 | 66 | 1019.2 |
| 20260503040335 | 7 | 0 | 4.8 | 11.3 | 0.00 | 0.00 | 0.00 | 66 | 1019.1 |
| 20260503035835 | 7 | 337 | 6.4 | 11.3 | 0.00 | 0.00 | 0.00 | 67 | 1019.1 |
| 20260503035335 | 7 | 0 | 8.0 | 9.7 | 0.00 | 0.00 | 0.00 | 69 | 1019.1 |
| 20260503034835 | 7 | 0 | 1.6 | 8.0 | 0.00 | 0.00 | 0.00 | 70 | 1019.0 |
| 20260503034335 | 6 | 22 | 3.2 | 9.7 | 0.00 | 0.00 | 0.00 | 71 | 1019.1 |
| 20260503033835 | 6 | 0 | 6.4 | 11.3 | 0.00 | 0.00 | 0.00 | 73 | 1019.0 |
| 20260503033335 | 5 | 0 | 11.3 | 11.3 | 0.00 | 0.00 | 0.00 | 74 | 1018.9 |
| 20260503032835 | 5 | 292 | 3.2 | 9.7 | 0.00 | 0.00 | 0.00 | 75 | 1018.9 |
| 20260503032335 | 5 | 0 | 8.0 | 8.0 | 0.00 | 0.00 | 0.00 | 75 | 1018.9 |
| 20260503031835 | 4 | 0 | 8.0 | 9.7 | 0.00 | 0.00 | 0.00 | 76 | 1018.9 |
| 20260503031335 | 4 | 0 | 4.8 | 6.4 | 0.00 | 0.00 | 0.00 | 76 | 1018.9 |
| 20260503030835 | 3 | 22 | 3.2 | 6.4 | 0.00 | 0.00 | 0.00 | 76 | 1018.8 |
| 20260503030335 | 3 | 22 | 4.8 | 8.0 | 0.00 | 0.00 | 0.00 | 76 | 1018.7 |
| 20260503025835 | 3 | 0 | 6.4 | 8.0 | 0.00 | 0.00 | 0.00 | 76 | 1018.7 |
| 20260503025335 | 3 | 0 | 6.4 | 9.7 | 0.00 | 0.00 | 0.00 | 76 | 1018.7 |
| 20260503024835 | 3 | 22 | 6.4 | 8.0 | 0.00 | 0.00 | 0.00 | 76 | 1018.6 |
| 20260503024335 | 3 | 0 | 3.2 | 8.0 | 0.00 | 0.00 | 0.00 | 76 | 1018.6 |
| 20260503023835 | 3 | 22 | 3.2 | 11.3 | 0.00 | 0.00 | 0.00 | 76 | 1018.6 |
| 20260503023335 | 3 | 0 | 3.2 | 8.0 | 0.00 | 0.00 | 0.00 | 76 | 1018.5 |
| 20260503022835 | 3 | 337 | 8.0 | 9.7 | 0.00 | 0.00 | 0.00 | 76 | 1018.6 |
| 20260503022335 | 3 | 22 | 8.0 | 8.0 | 0.00 | 0.00 | 0.00 | 75 | 1018.5 |
| 20260503021835 | 4 | 0 | 1.6 | 8.0 | 0.00 | 0.00 | 0.00 | 75 | 1018.5 |